This demonstration page uses our WeatherBlox Daily Observations layout. Learn more.

36.17497, -115.13722

Hourly Observations for June 19, 2020

Temp ( °F °C ) Dew Point ( °F °C ) Humidity (%) Winds ( mph kmh ) Pressure ( in mb ) Visibility ( mi km ) Precip ( " mm )
12:53 am 00:53 Clear 79 26.1 31 -0.6 17 17 NW 7 11 29.8 1009 10 16.0934 0 0
1:53 am 01:53 Clear 76 24.4 27 -2.8 16 16 undefined N/A 29.81 1010 10 16.0934 0 0
2:53 am 02:53 Clear 78 25.6 23 -5 13 13 W 3 6 29.81 1009 10 16.0934 0 0
3:53 am 03:53 Clear 77 25 26 -3.3 15 15 SW 3 6 29.82 1010 10 16.0934 0 0
4:53 am 04:53 Clear 75 23.9 27 -2.8 17 17 W 5 7 29.83 1010 10 16.0934 0 0
5:53 am 05:53 Sunny 75 23.9 27 -2.8 17 17 WNW 8 13 29.85 1011 10 16.0934 0 0
6:53 am 06:53 Sunny 79 26.1 26 -3.3 14 14 WNW 6 9 29.86 1011 10 16.0934 0 0
7:53 am 07:53 Sunny 83 28.3 23 -5 11 11 WNW 7 11 29.88 1012 10 16.0934 0 0
8:53 am 08:53 Sunny 86 30 23 -5 10 10 Calm 29.88 1012 10 16.0934 0 0
9:53 am 09:53 Sunny 88 31.1 25 -3.9 10 10 Calm 29.88 1012 10 16.0934 0 0
10:53 am 10:53 Sunny 90 32.2 26 -3.3 10 10 Calm 29.88 1012 10 16.0934 0 0
11:53 am 11:53 Sunny 93 33.9 25 -3.9 8 8 VRB 5 7 29.88 1012 10 16.0934 0 0
12:53 pm 12:53 Sunny 93 33.9 24 -4.4 8 8 VRB 3 6 29.86 1011 10 16.0934 0 0
1:53 pm 13:53 Sunny 97 36.1 23 -5 7 7 SSE 7 11 29.83 1010 10 16.0934 0 0
2:53 pm 14:53 Sunny 97 36.1 23 -5 7 7 VRB 5 7 29.81 1009 10 16.0934 0 0
3:53 pm 15:53 Sunny 98 36.7 23 -5 7 7 SSE 5 7 29.79 1009 10 16.0934 0 0
4:53 pm 16:53 Sunny 99 37.2 21 -6.1 6 6 SSE 7 11 29.78 1008 10 16.0934 0 0
5:53 pm 17:53 Sunny 99 37.2 20 -6.7 6 6 ESE 7 11 29.76 1008 10 16.0934 0 0
6:53 pm 18:53 Sunny 98 36.7 20 -6.7 6 6 ESE 7 11 29.75 1008 10 16.0934 0 0
7:53 pm 19:53 Sunny 95 35 20 -6.7 6 6 ESE 6 9 29.76 1008 10 16.0934 0 0
8:53 pm 20:53 Clear 93 33.9 23 -5 8 8 SE 3 6 29.77 1008 10 16.0934 0 0
9:53 pm 21:53 Clear 92 33.3 25 -3.9 9 9 S 3 6 29.79 1009 10 16.0934 0 0
10:53 pm 22:53 Clear 87 30.6 29 -1.7 12 12 NNW 8 13 29.8 1009 10 16.0934 0 0
11:53 pm 23:53 Clear 84 28.9 29 -1.7 13 13 NW 5 7 29.8 1009 10 16.0934 0 0

Powered by AerisWeather